• In Netherlands
  • List of Countries
  • For 7 days
  • Water Temperature
  • Satellite Maps
  • Weather Map
  • Weather Widgets
  • user-avatar
    Login

    Hourly Weather La Rioja

    Today, 23 July, Sunday

    Time Temperature Precipitation Wind Pressure Humidity
    00:00 +16°C° 0 mm 2 mps 708 mmHg 36%
    01:00 +16°C° 0 mm 2 mps 708 mmHg 40%
    02:00 +15°C° 0 mm 2 mps 708 mmHg 44%
    03:00 +15°C° 0 mm 2 mps 708 mmHg 47%
    04:00 +14°C° 0 mm 2 mps 708 mmHg 50%
    05:00 +14°C° 0 mm 1 mps 708 mmHg 53%
    06:00 +14°C° 0 mm 1 mps 708 mmHg 52%
    07:00 +15°C° 0 mm 1 mps 709 mmHg 51%
    08:00 +15°C° 0 mm 1 mps 709 mmHg 49%
    09:00 +18°C° 0 mm 2 mps 710 mmHg 42%
    10:00 +21°C° 0 mm 2 mps 711 mmHg 35%
    11:00 +24°C° 0 mm 2 mps 711 mmHg 28%
    12:00 +25°C° 0 mm 3 mps 711 mmHg 26%
    13:00 +26°C° 0 mm 3 mps 710 mmHg 24%
    14:00 +27°C° 0 mm 3 mps 710 mmHg 22%
    15:00 +27°C° 0 mm 3 mps 710 mmHg 24%
    16:00 +26°C° 0 mm 3 mps 710 mmHg 25%
    17:00 +26°C° 0 mm 3 mps 710 mmHg 27%
    18:00 +22°C° 0 mm 3 mps 711 mmHg 33%
    19:00 +20°C° 0 mm 2 mps 712 mmHg 39%
    20:00 +18°C° 0 mm 2 mps 712 mmHg 46%
    21:00 +18°C° 0 mm 3 mps 713 mmHg 47%
    22:00 +17°C° 0 mm 3 mps 714 mmHg 49%
    23:00 +16°C° 0 mm 3 mps 714 mmHg 51%

    Tomorrow, 24 July, Monday

    Time Temperature Precipitation Wind Pressure Humidity
    00:00 +16°C° 0 mm 3 mps 714 mmHg 53%
    01:00 +14°C° 0 mm 3 mps 714 mmHg 55%
    02:00 +14°C° 0 mm 3 mps 715 mmHg 57%
    03:00 +13°C° 0 mm 3 mps 714 mmHg 58%
    04:00 +13°C° 0 mm 3 mps 714 mmHg 59%
    05:00 +12°C° 0 mm 3 mps 714 mmHg 59%
    06:00 +12°C° 0 mm 3 mps 714 mmHg 58%
    07:00 +12°C° 0 mm 3 mps 715 mmHg 57%
    08:00 +12°C° 0 mm 3 mps 715 mmHg 55%
    09:00 +14°C° 0 mm 3 mps 715 mmHg 48%
    10:00 +17°C° 0 mm 3 mps 716 mmHg 42%
    11:00 +19°C° 0 mm 3 mps 716 mmHg 35%
    12:00 +20°C° 0 mm 2 mps 715 mmHg 34%
    13:00 +21°C° 0 mm 2 mps 715 mmHg 33%
    14:00 +23°C° 0 mm 2 mps 714 mmHg 32%
    15:00 +23°C° 0 mm 2 mps 714 mmHg 33%
    16:00 +23°C° 0 mm 2 mps 714 mmHg 34%
    17:00 +21°C° 0 mm 2 mps 714 mmHg 35%
    18:00 +20°C° 0 mm 2 mps 714 mmHg 40%
    19:00 +18°C° 0 mm 2 mps 715 mmHg 45%
    20:00 +18°C° 0 mm 1 mps 716 mmHg 50%
    21:00 +16°C° 0 mm 2 mps 716 mmHg 51%
    22:00 +16°C° 0 mm 2 mps 717 mmHg 52%
    23:00 +15°C° 0 mm 2 mps 717 mmHg 54%

    Day after tomorrow, 25 July, Tuesday

    Time Temperature Precipitation Wind Pressure Humidity
    00:00 +15°C° 0 mm 2 mps 717 mmHg 54%
    01:00 +15°C° 0 mm 2 mps 717 mmHg 55%
    02:00 +14°C° 0 mm 2 mps 716 mmHg 55%
    03:00 +14°C° 0 mm 2 mps 716 mmHg 56%
    04:00 +14°C° 0 mm 2 mps 716 mmHg 57%
    05:00 +13°C° 0 mm 2 mps 716 mmHg 58%
    06:00 +14°C° 0 mm 2 mps 716 mmHg 57%
    07:00 +14°C° 0 mm 2 mps 716 mmHg 56%
    08:00 +15°C° 0 mm 2 mps 717 mmHg 55%
    09:00 +16°C° 0 mm 2 mps 716 mmHg 54%
    10:00 +18°C° 0 mm 2 mps 716 mmHg 53%
    11:00 +19°C° 0 mm 2 mps 716 mmHg 51%
    12:00 +20°C° 0 mm 3 mps 715 mmHg 51%
    13:00 +21°C° 0 mm 3 mps 714 mmHg 50%
    14:00 +22°C° 0 mm 3 mps 713 mmHg 49%
    15:00 +22°C° 0 mm 3 mps 713 mmHg 52%
    16:00 +21°C° 0 mm 2 mps 713 mmHg 54%
    17:00 +21°C° 0 mm 2 mps 713 mmHg 56%
    18:00 +20°C° 0 mm 2 mps 713 mmHg 62%
    19:00 +19°C° 0 mm 2 mps 714 mmHg 68%
    20:00 +18°C° 0 mm 2 mps 715 mmHg 73%
    21:00 +17°C° 0 mm 2 mps 715 mmHg 74%
    22:00 +17°C° 0 mm 2 mps 715 mmHg 75%
    23:00 +17°C° 0 mm 2 mps 716 mmHg 76%

    26 July, Wednesday

    Time Temperature Precipitation Wind Pressure Humidity
    00:00 +17°C° 0 mm 2 mps 716 mmHg 77%
    01:00 +17°C° 0 mm 2 mps 715 mmHg 79%
    02:00 +17°C° 0 mm 2 mps 715 mmHg 81%
    03:00 +16°C° 0 mm 1 mps 715 mmHg 82%
    04:00 +16°C° 0 mm 1 mps 715 mmHg 83%
    05:00 +16°C° 0 mm 1 mps 714 mmHg 84%
    06:00 +16°C° 0 mm 1 mps 715 mmHg 82%
    07:00 +16°C° 0 mm 1 mps 715 mmHg 81%
    08:00 +18°C° 0 mm 1 mps 716 mmHg 80%
    09:00 +19°C° 0 mm 1 mps 716 mmHg 74%
    10:00 +21°C° 0 mm 1 mps 716 mmHg 68%
    11:00 +21°C° 0 mm 2 mps 716 mmHg 62%
    12:00 +24°C° 0 mm 2 mps 715 mmHg 57%
    13:00 +25°C° 0 mm 2 mps 714 mmHg 52%
    14:00 +26°C° 0 mm 2 mps 713 mmHg 48%
    15:00 +26°C° 0 mm 2 mps 713 mmHg 48%
    16:00 +26°C° 0 mm 2 mps 713 mmHg 49%
    17:00 +25°C° 0 mm 2 mps 713 mmHg 49%
    18:00 +24°C° 0 mm 2 mps 713 mmHg 55%
    19:00 +22°C° 0 mm 1 mps 713 mmHg 61%
    20:00 +21°C° 0 mm 1 mps 714 mmHg 67%
    21:00 +20°C° 0 mm 1 mps 713 mmHg 68%
    22:00 +20°C° 0 mm 1 mps 713 mmHg 70%
    23:00 +20°C° 0 mm 1 mps 713 mmHg 71%

    27 July, Thursday

    Time Temperature Precipitation Wind Pressure Humidity
    00:00 +19°C° 0 mm 1 mps 713 mmHg 71%
    01:00 +19°C° 0 mm 1 mps 713 mmHg 71%
    02:00 +19°C° 0 mm 1 mps 712 mmHg 72%
    03:00 +18°C° 0 mm 1 mps 712 mmHg 73%
    04:00 +18°C° 0 mm 1 mps 712 mmHg 74%
    05:00 +18°C° 0 mm 1 mps 711 mmHg 74%
    06:00 +18°C° 0 mm 1 mps 712 mmHg 73%
    07:00 +18°C° 0 mm 2 mps 712 mmHg 71%
    08:00 +18°C° 0 mm 2 mps 712 mmHg 70%
    09:00 +20°C° 0 mm 2 mps 712 mmHg 62%
    10:00 +24°C° 0 mm 2 mps 712 mmHg 55%
    11:00 +26°C° 0 mm 2 mps 712 mmHg 47%
    12:00 +27°C° 0 mm 2 mps 712 mmHg 44%
    13:00 +28°C° 0 mm 2 mps 711 mmHg 40%
    14:00 +29°C° 0 mm 2 mps 710 mmHg 37%
    15:00 +28°C° 0 mm 2 mps 710 mmHg 38%
    16:00 +28°C° 0 mm 2 mps 710 mmHg 39%
    17:00 +28°C° 0 mm 2 mps 709 mmHg 40%
    18:00 +26°C° 0 mm 2 mps 710 mmHg 46%
    19:00 +24°C° 0 mm 2 mps 710 mmHg 51%
    20:00 +23°C° 0 mm 2 mps 710 mmHg 56%
    21:00 +23°C° 0 mm 2 mps 710 mmHg 56%
    22:00 +21°C° 0 mm 2 mps 710 mmHg 55%
    23:00 +21°C° 0 mm 2 mps 710 mmHg 55%

    28 July, Friday

    Time Temperature Precipitation Wind Pressure Humidity
    00:00 +21°C° 0 mm 2 mps 710 mmHg 55%
    01:00 +20°C° 0 mm 2 mps 710 mmHg 56%
    02:00 +20°C° 0 mm 2 mps 710 mmHg 56%
    03:00 +19°C° 0 mm 2 mps 710 mmHg 56%
    04:00 +19°C° 0 mm 2 mps 710 mmHg 57%
    05:00 +19°C° 0 mm 2 mps 710 mmHg 58%
    06:00 +19°C° 0 mm 2 mps 710 mmHg 57%
    07:00 +19°C° 0 mm 2 mps 711 mmHg 57%
    08:00 +20°C° 0 mm 2 mps 712 mmHg 56%
    09:00 +23°C° 0 mm 2 mps 712 mmHg 49%
    10:00 +26°C° 0 mm 3 mps 712 mmHg 41%
    11:00 +28°C° 0 mm 3 mps 713 mmHg 34%
    12:00 +29°C° 0 mm 4 mps 712 mmHg 31%
    13:00 +30°C° 0 mm 4 mps 712 mmHg 27%
    14:00 +32°C° 0 mm 4 mps 711 mmHg 24%
    15:00 +30°C° 0 mm 4 mps 712 mmHg 25%
    16:00 +30°C° 0 mm 4 mps 712 mmHg 26%
    17:00 +29°C° 0 mm 4 mps 712 mmHg 26%
    18:00 +27°C° 0 mm 4 mps 713 mmHg 34%
    19:00 +25°C° 0 mm 4 mps 714 mmHg 42%
    20:00 +22°C° 0 mm 4 mps 714 mmHg 50%
    21:00 +21°C° 0 mm 4 mps 715 mmHg 56%
    22:00 +20°C° 0 mm 4 mps 715 mmHg 62%
    23:00 +20°C° 0 mm 4 mps 716 mmHg 67%
    Show more